Location: Washington
(38.8950°N, 77.0370°W)
Time: 02:19:38
(UTC-04:00)

Tiangong 1 - Visible Passes

Search period start: 02 August 2015 00:00
Search period end: 12 August 2015 00:00
Orbit: 369 x 388 km, 42.8° (Epoch: 01 August)

Date Brightness Start Highest point End Pass type
(mag) Time Alt. Az. Time Alt. Az. Time Alt. Az.
06 Aug 3.3 04:47:44 13° SSE 04:48:41 15° SE 04:50:35 10° ESE visible
07 Aug 1.6 05:21:12 15° SW 05:23:30 47° SSE 05:26:30 10° ENE visible
08 Aug 2.7 04:22:30 24° SE 04:22:30 24° SE 04:24:42 10° E visible
09 Aug 0.9 04:55:50 35° WSW 04:56:57 78° SSE 05:00:02 10° ENE visible
10 Aug 3.2 03:57:00 22° E 03:57:00 22° E 03:58:21 10° E visible
10 Aug 1.7 05:29:05 11° W 05:32:00 48° NNW 05:35:01 10° ENE visible
11 Aug 1.0 04:30:14 70° NNW 04:30:18 70° NNW 04:33:23 10° ENE visible
